Weather History for Tegucigalpa, Honduras

Change the Weather History Date:

Saturday, November 24, 2012

  Actual Average Record
Temperature  
Mean Temperature 65 °F -  
Max Temperature 74 °F 76 °F 84 °F (2004)
Min Temperature 56 °F 58 °F 46 °F (2005)
Growing Degree Days 15 (Base 50)    
Moisture  
Dew Point 55 °F    
Average Humidity 73    
Maximum Humidity 100    
Minimum Humidity 41    
Precipitation  
Precipitation 0.00 in 0.02 in - ()
Sea Level Pressure  
Sea Level Pressure 30.12 in    
Wind  
Wind Speed 11 mph ()    
Max Wind Speed 29 mph    
Max Gust Speed 32 mph    
Visibility 6.3 miles    
Events      
Averages and records for this station are not official NWS values.
T = Trace of Precipitation, MM = Missing Value Source: Averaged Metar Reports

Daily Weather History Graph

Daily Weather History Graph

Search for Another Location

Airport:

Trip Planner

Search our weather history database for the weather conditions in past years. The results will help you decide how hot, cold, wet, or windy it might be!

Date:

Astronomy

Nov. 24, 2012 Rise Set
Actual Time 5:53 AM CST 5:17 PM CST
Civil Twilight 5:30 AM CST 5:40 PM CST
Nautical Twilight 5:04 AM CST 6:06 PM CST
Astronomical Twilight 4:38 AM CST 6:32 PM CST
Moon 2:38 PM CST (11/24) 2:37 AM CST (11/24)
Length of Visible Light 12h 09m
Length of Day
11h 24m
Waxing Gibbous, 87% of the Moon is Illuminated
Nov 24
Waxing Gibbous
Nov 28
Full
Dec 6
Last Quarter
Dec 13
New
Dec 19
First Quarter

Hourly Weather History & Observations

Time (CST) Temp. Dew Point Humidity Pressure Visibility Wind Dir Wind Speed Gust Speed Precip Events Conditions
12:00 AM 58 °F 55 °F 88% 30.08 in 6 mi NW 6.9 mph - -   Haze
1:00 AM 57.2 °F 55.4 °F 94% 30.15 in 6.2 mi North 9.2 mph - N/A   Scattered Clouds
2:00 AM 57.2 °F 55.4 °F 94% 30.12 in 6.2 mi North 8.1 mph - N/A   Scattered Clouds
3:00 AM 57.2 °F 55.4 °F 94% 30.12 in 6.2 mi North 9.2 mph - N/A   Scattered Clouds
4:00 AM 57.2 °F 55.4 °F 94% 30.12 in 6.2 mi North 9.2 mph - N/A   Scattered Clouds
5:00 AM 57.2 °F 55.4 °F 94% 30.15 in 6.2 mi North 9.2 mph - N/A   Scattered Clouds
6:00 AM 57.2 °F 57.2 °F 100% 30.15 in 6.2 mi North 9.2 mph - N/A   Mostly Cloudy
7:00 AM 59.0 °F 57.2 °F 94% 30.18 in 6.2 mi North 6.9 mph - N/A   Scattered Clouds
8:00 AM 60.8 °F 57.2 °F 88% 30.21 in 6.2 mi North 9.2 mph - N/A   Mostly Cloudy
9:00 AM 64.4 °F 57.2 °F 77% 30.21 in 6.2 mi North 11.5 mph - N/A   Mostly Cloudy
10:00 AM 66.2 °F 55.4 °F 68% 30.21 in 6.2 mi North 18.4 mph 32.2 mph N/A   Mostly Cloudy
11:00 AM 69.8 °F 55.4 °F 60% 30.18 in 6.2 mi North 13.8 mph - N/A   Mostly Cloudy
12:00 PM 71 °F 55 °F 46% 29.99 in 7 mi North 28.8 mph - -   Haze
12:00 PM 71.6 °F 53.6 °F 53% 30.15 in 6.2 mi North 17.3 mph 28.8 mph N/A   Mostly Cloudy
1:00 PM 73.4 °F 53.6 °F 50% 30.12 in 6.2 mi North 16.1 mph 28.8 mph N/A   Scattered Clouds
2:00 PM 73.4 °F 55.4 °F 53% 30.09 in 6.2 mi North 19.6 mph - N/A   Scattered Clouds
3:00 PM 74 °F 55 °F 41% 29.89 in 7 mi North 17.3 mph - -   Haze
3:00 PM 73.4 °F 55.4 °F 53% 30.06 in 6.2 mi North 17.3 mph - N/A   Partly Cloudy
4:00 PM 71.6 °F 53.6 °F 53% 30.06 in 6.2 mi North 16.1 mph 29.9 mph N/A   Scattered Clouds
5:00 PM 68.0 °F 55.4 °F 64% 30.06 in 6.2 mi North 16.1 mph - N/A   Scattered Clouds
6:00 PM 65 °F 54 °F 60% 29.97 in 7 mi North 17.3 mph - -   Haze
6:00 PM 64.4 °F 53.6 °F 68% 30.09 in 6.2 mi North 17.3 mph - N/A   Partly Cloudy
7:00 PM 62.6 °F 53.6 °F 72% 30.12 in 6.2 mi North 13.8 mph - N/A   Partly Cloudy
8:00 PM 62.6 °F 50.0 °F 63% 30.15 in 6.2 mi North 11.5 mph - N/A   Partly Cloudy
9:00 PM 60 °F 54 °F 74% 30.09 in 6 mi North 9.2 mph - -   Haze
9:00 PM 60.8 °F 53.6 °F 77% 30.18 in 6.2 mi North 9.2 mph - N/A   Partly Cloudy
10:00 PM 59.0 °F 55.4 °F 88% 30.18 in 6.2 mi North 9.2 mph - N/A   Partly Cloudy
11:00 PM 59.0 °F 55.4 °F 88% 30.21 in 6.2 mi NNE 6.9 mph - N/A   Partly Cloudy